This demonstration page uses our WeatherBlox Daily Observations layout. Learn more.

Left ArrowRight Arrow

Hourly Observations for June 10, 2016

Temp ( °F °C ) Dew Point ( °F °C ) Humidity (%) Winds ( mph kmh ) Pressure ( in mb ) Visibility ( mi km ) Precip ( " mm )
12:53 am 00:53 Mostly Cloudy 73 22.8 42 5.6 33 33 NW 5 7 29.79 1009 10 16 0.00 0.00
1:53 am 01:53 Partly Cloudy 71 21.7 43 6.1 36 36 Calm 29.79 1009 10 16 0.00 0.00
2:53 am 02:53 Mostly Cloudy 68 20 44 6.7 42 42 W 3 6 29.80 1009 10 16 0.00 0.00
3:53 am 03:53 Mostly Clear 68 20 45 7.2 44 44 SSE 7 11 29.80 1009 10 16 0.00 0.00
4:53 am 04:53 Clear 67 19.4 45 7.2 45 45 S 6 9 29.81 1009 10 16 0.00 0.00
5:53 am 05:53 Sunny 68 20 51 10.6 55 55 SSW 5 7 29.83 1010 10 16 0.00 0.00
6:53 am 06:53 Sunny 67 19.4 50 10 55 55 SSE 5 7 29.84 1011 10 16 0.00 0.00
7:49 am 07:49 Mostly Sunny 66 19 52 11 60 60 SE 9 15 29.88 1012 10 16 0.00 0.00
7:53 am 07:53 Sunny 67 19.4 52 11.1 59 59 SSE 8 13 29.87 1011 10 16 0.00 0.00
8:53 am 08:53 Sunny 68 20 51 10.6 55 55 SE 7 11 29.89 1012 10 16 0.00 0.00
9:53 am 09:53 Sunny 71 21.7 47 8.3 42 42 Calm 29.89 1012 10 16 0.00 0.00
10:53 am 10:53 Sunny 74 23.3 47 8.3 38 38 VRB 5 7 29.89 1012 10 16 0.00 0.00
11:53 am 11:53 Sunny 78 25.6 47 8.3 33 33 S 8 13 29.89 1012 10 16 0.00 0.00
12:53 pm 12:53 Sunny 79 26.1 43 6.1 28 28 VRB 7 11 29.89 1012 10 16 0.00 0.00
1:53 pm 13:53 Sunny 81 27.2 43 6.1 26 26 VRB 3 6 29.88 1012 10 16 0.00 0.00
2:53 pm 14:53 Sunny 83 28.3 42 5.6 24 24 ESE 13 20 29.86 1011 10 16 0.00 0.00
3:53 pm 15:53 Sunny 83 28.3 41 5 23 23 SSE 8 13 29.85 1011 10 16 0.00 0.00
4:53 pm 16:53 Sunny 83 28.3 44 6.7 25 25 SE 10 17 29.84 1011 10 16 0.00 0.00
5:53 pm 17:53 Mostly Cloudy 81 27.2 47 8.3 30 30 ESE 9 15 29.85 1011 10 16 0.00 0.00
6:53 pm 18:53 Mostly Sunny 79 26.1 40 4.4 25 25 NW 6 9 29.85 1011 10 16 0.00 0.00
7:53 pm 19:53 Sunny 79 26.1 33 0.6 19 19 WNW 9 15 29.86 1011 10 16 0.00 0.00
8:53 pm 20:53 Clear 75 23.9 33 0.6 22 22 NNW 10 17 29.87 1012 10 16 0.00 0.00
9:53 pm 21:53 Clear 73 22.8 32 0 22 22 NW 9 15 29.90 1012 10 16 0.00 0.00
10:53 pm 22:53 Mostly Cloudy 71 21.7 34 1.1 26 26 NNW 8 13 29.92 1013 10 16 0.00 0.00
11:53 pm 23:53 Clear 71 21.7 37 2.8 29 29 N 10 17 29.93 1013 10 16 0.00 0.00

Powered by AerisWeather